Location: Castex
(43.3767°N, 0.3100°E)
Time: 21:44:14
(UTC+00:00)

Daily predictions for brighter satellites

Satellite Brightness Start Highest point End
(mag) Time Altitude Azimuth Time Altitude Azimuth Time Altitude Azimuth
SMAP 3.2 17:24:28 10° SSE 17:29:07 85° WSW 17:33:48 10° NNW
Cosmos 371 Rocket 3.9 17:26:40 10° SSE 17:31:05 36° ESE 17:35:32 10° NE
Cosmos 1697 Rocket 4.2 17:25:54 10° SW 17:31:08 37° WNW 17:36:23 10° N
deb Chang Zheng 4 3.8 17:27:55 10° SE 17:31:56 45° ENE 17:35:58 10° N
CZ-2D R/B 3.5 17:28:16 10° SSE 17:31:58 47° ENE 17:35:43 10° N
CZ-2C R/B 3.1 17:32:33 10° WSW 17:35:21 21° S 17:38:04 10° SE
Cosmos 2123 Rocket 4.4 17:30:52 10° N 17:36:51 42° ENE 17:42:46 10° SE
Okean 1-7 Rocket 4.2 17:33:20 10° N 17:37:21 33° ENE 17:41:23 10° SE
COSMO-SKYMED 1 3.1 17:35:21 10° NNE 17:39:24 37° E 17:43:26 10° SSE
Cosmos 1953 2.3 17:36:22 10° S 17:40:24 88° E 17:44:30 10° N
CZ-4C R/B 4.1 17:38:38 10° NE 17:41:17 22° E 17:43:52 10° SSE
Meteor 1-21 Rocket 4.4 17:35:29 10° N 17:41:24 84° E 17:47:21 10° S
Cosmos 1908 3.5 17:38:32 10° SSW 17:42:24 74° W 17:46:16 10° N
BREEZE M DEB (TANK) 4.2 17:39:01 10° WNW 17:43:02 82° SSW 18:10:48 10° ESE
Cosmos 1844 Rocket 4.0 17:41:15 10° N 17:45:22 20° NE 17:49:18 11° E
Tiangong 1.5 17:43:07 10° WSW 17:46:17 57° S 17:49:04 13° E
Cosmos 1892 Rocket 3.5 17:41:56 10° N 17:46:24 83° E 17:50:48 10° S
Iridium 4 Rocket 3.7 17:44:46 10° NNE 17:49:14 42° E 17:54:03 10° SSE
Cosmos 724 4.3 17:45:34 10° NNW 17:51:32 88° ENE 17:57:21 10° SSE
Meteor 2-10 Rocket 4.3 17:53:59 10° SSE 17:58:51 32° E 18:03:34 10° NNE
Cosmos 2278 4.5 17:53:48 10° SW 17:59:21 55° WNW 18:04:58 10° NNE
Cosmos 1408 4.4 17:58:47 10° NE 18:00:10 14° ENE 18:00:10 14° ENE
Cosmos 44 4.4 17:57:04 10° S 18:01:42 29° ESE 18:05:39 13° ENE
NOSS 8 (E) 4.3 18:01:33 10° SW 18:05:08 82° NW 18:07:57 11° NE
CZ-4 R/B 2.2 18:02:43 10° SE 18:06:12 29° ENE 18:09:44 10° N
SL-19 R/B 4.4 18:04:12 10° NNE 18:09:53 80° WNW 18:15:26 10° SSW
Cosmos 1626 Rocket 3.7 18:05:49 10° N 18:10:01 48° ENE 18:14:12 10° SSE
NOSS 2-3 (E) 3.3 18:07:06 10° SSW 18:11:03 73° ESE 18:15:31 10° NE
SL-16 R/B 2.1 18:06:34 10° SSW 18:12:11 72° ESE 18:17:52 10° NNE
ATLAS 5 CENTAUR R/B 3.2 18:08:58 10° W 18:12:22 27° NW 18:16:08 10° NNE
H-2A R/B 2.3 18:07:02 10° S 18:12:25 79° WSW 18:17:55 10° NNW
USA 215 4.1 18:06:31 10° NE 18:12:38 44° NNW 18:18:45 10° W
Cosmos 1300 2.6 18:10:19 10° S 18:14:06 82° E 18:17:55 10° N
USA 229 DEB 3.8 18:09:43 10° S 18:15:43 48° ESE 18:22:04 10° NE
USA 229 3.8 18:09:51 10° S 18:15:50 47° ESE 18:22:06 10° NE
H-2A R/B 2.7 18:11:56 10° SE 18:16:03 46° ENE 18:20:03 10° N
IRAS Rocket 4.3 18:14:50 10° NNE 18:20:15 52° ESE 18:25:35 10° S
OE (NEXTSAT) 4.2 18:18:55 10° WSW 18:22:21 86° NNW 18:23:44 33° ENE
Cosmos 1605 Rocket 4.0 18:16:53 10° S 18:23:01 61° E 18:29:17 10° NNE
CZ-4 R/B 4.4 18:20:40 10° SSE 18:24:47 88° WSW 18:28:57 10° NNW
Cosmos 2322 Rocket 2.1 18:19:33 10° SSW 18:25:07 69° ESE 18:30:43 10° NNE
Cosmos 304 Rocket 3.7 18:21:12 10° S 18:25:56 69° ESE 18:30:43 10° NNE
Cosmos 220 Rocket 4.2 18:22:24 10° S 18:26:39 48° ESE 18:30:17 14° NNE
SKYMED 2 4.0 18:23:12 10° N 18:27:31 66° WNW 18:31:48 10° SSW
YAOGAN 1 2.6 18:27:13 10° SSE 18:31:27 56° ENE 18:35:42 10° N
Feng Yun 1-1 Rocket 4.2 18:26:22 10° SSE 18:31:54 76° ENE 18:37:38 10° NNW
Cosmos 2219 Rocket 4.1 18:29:37 10° SE 18:30:02 11° SE 18:30:02 11° SE
Cosmos 1844 4.2 18:29:23 10° NNW 18:34:47 38° ENE 18:36:48 29° E
Cosmos 2360 Rocket 2.3 18:30:05 10° S 18:35:30 50° ESE 18:40:24 13° NE
H-2A R/B 2.3 18:33:54 22° NE 18:36:10 41° E 18:40:08 10° S
NOSS 3-1 (A) 3.1 18:33:00 10° SSW 18:38:08 67° ESE 18:42:42 17° NE
Cosmos 2333 Rocket 3.3 18:34:31 10° SSE 18:37:49 24° SE 18:37:49 24° SE
HJ-1C 3.7 18:41:53 45° NNE 18:41:53 45° NNE 18:44:25 10° N
BREEZE-M R/B 2.8 18:40:57 10° WNW 18:44:20 59° NNE 18:45:40 39° E
Cosmos 332 Rocket 3.9 18:39:34 10° SSW 18:44:28 80° WNW 18:49:22 10° NNE
ARGOS 3.5 18:40:13 10° S 18:45:35 66° WSW 18:51:00 10° NNW
USA 267 4.1 18:40:09 10° SSE 18:46:25 49° SW 18:52:43 10° WNW
CZ-4B R/B 4.5 18:41:13 10° S 18:46:35 43° W 18:51:59 10° NNW
MetOp-A 4.3 18:46:56 31° SE 18:49:07 49° ENE 18:54:15 10° N
Cosmos 2251 Rocket 3.4 18:47:30 10° NNW 18:52:46 73° ENE 18:55:32 28° SSE
Spot 2 4.4 18:50:16 10° S 18:54:20 62° WSW 18:58:39 10° NNW
Okean O Rocket 3.3 18:51:09 10° SSW 18:55:05 34° W 18:59:05 10° NNW
In-Cosmos 22 Rocket 3.9 18:49:51 10° N 18:55:12 81° E 19:00:31 10° SSE
Cosmos 2263 Rocket 4.3 18:51:54 10° NW 18:56:29 27° WSW 19:01:04 10° SSW
Cosmos 407 Rocket 4.1 18:52:10 10° N 18:56:49 38° NE 18:56:49 38° NE
NOSS 2-3 (D) 4.4 18:54:46 10° WSW 18:58:41 46° NW 19:01:33 20° NNE
X-37B 1.9 18:57:34 10° W 18:59:34 36° WSW 18:59:34 36° WSW
Cosmos 1140 Rocket 4.1 18:55:54 10° N 19:00:02 36° NE 19:00:02 36° NE
Cosmos 2344 4.3 18:51:55 10° NW 19:01:13 79° NE 19:11:48 17° SE
CSL-04 Debris 4.1 19:00:03 44° ESE 19:01:30 58° ENE 19:06:50 10° N
Meteor 1-4 Rocket 3.7 18:59:23 10° SSW 19:02:42 42° WNW 19:06:01 10° N
NOSS 3-1 (C) 4.0 18:58:05 10° WSW 19:03:14 49° NW 19:08:47 12° NNE
SL-8 R/B 4.3 18:59:06 10° WNW 19:03:43 46° N 19:04:36 41° NNE
DMSP B5D1-3 4.5 19:00:31 10° NNE 19:05:41 87° WNW 19:10:51 10° SSW
CZ-2C R/B 3.9 19:01:47 10° N 19:07:01 42° WNW 19:12:08 10° SW
Lacrosse 4 Rocket 1.9 19:03:33 10° NW 19:07:50 59° WSW 19:09:21 37° S
Cosmos 1892 2.8 19:04:24 10° NNW 19:07:58 70° WNW 19:07:58 70° WNW
Cosmos 1932 4.3 19:05:33 10° NNW 19:11:48 73° NE 19:13:18 53° ESE
Cosmos 1602 Rocket 4.4 19:08:22 10° NNW 19:12:34 49° W 19:16:43 10° SSW
CSL-04 Rocket 3.6 19:12:58 57° ESE 19:13:55 68° ENE 19:19:26 10° N
CZ-2C R/B 3.7 19:13:30 10° SSW 19:13:58 10° SSW 19:13:58 10° SSW
IRS-1C Rocket 4.1 19:11:06 17° S 19:15:09 79° WSW 19:20:27 10° NNW
Okean-O 2.5 19:16:36 85° NW 19:16:36 85° NW 19:20:58 10° NNW
Orbus 7S? 3.8 19:11:51 10° NW 19:19:15 72° NNE 19:19:15 72° NNE
Tiangong 3.5 19:19:53 10° W 19:21:18 23° WSW 19:21:18 23° WSW
Meteor 2-11 Rocket 4.3 19:19:22 10° S 19:25:32 90° WNW 19:31:44 10° N
Cosmos 1844 Rocket 2.8 19:24:16 10° NNW 19:29:49 70° WSW 19:31:01 53° S
CZ-4 R/B 3.7 19:37:55 10° SSW 19:41:10 23° W 19:44:28 10° NW
Cosmos 44 4.4 19:37:33 10° WSW 19:42:47 47° NW 19:44:07 38° N
Cosmos 1459 Rocket 4.0 19:38:26 10° S 19:45:26 70° N 19:50:50 10° N
Cosmos 2100 Rocket 4.0 19:38:23 10° S 19:44:42 82° W 19:51:06 10° N
Cosmos 2278 Rocket 4.1 19:46:44 10° N 19:48:42 19° N 19:48:42 19° N
SL-16 R/B 4.5 19:52:43 10° W 19:56:53 21° NW 20:01:05 10° N
Cosmos 2173 Rocket 4.2 19:52:24 10° SSW 19:58:32 68° W 20:04:49 10° N
Milstar 3 Cent rocket 4.4 19:56:16 10° SW 20:01:44 31° S 20:01:44 31° S
Cosmos 2322 Rocket 4.4 20:05:33 10° W 20:09:43 21° NW 20:13:55 10° N
Cosmos 2219 Rocket 4.5 20:11:15 10° SW 20:11:53 13° SW 20:11:53 13° SW
Cosmos 2360 Rocket 4.0 20:15:00 10° WSW 20:19:45 27° NW 20:22:15 20° NNW
Cosmos 2333 Rocket 4.0 20:17:38 10° SW 20:19:57 24° WSW 20:19:57 24° WSW
CENTAUR R/B 4.2 20:41:46 10° NNW 20:46:32 34° N 20:46:32 34° N
